Stations météo

réclame
Mon MeteoGroup
Junsele A, Suède (2243): Température de l'air & dewpoint: 13.01.2018 23:00:00 - 19.01.2018 23:00:00 (CET)Junsele A, Suède (2243): Vitesse du vent & gusts: 13.01.2018 23:00:00 - 19.01.2018 23:00:00 (CET)Junsele A, Suède (2243): Direction du vent: 13.01.2018 23:00:00 - 19.01.2018 23:00:00 (CET)Junsele A, Suède (2243): reduced air pressure: 13.01.2018 23:00:00 - 19.01.2018 23:00:00 (CET)Junsele A, Suède (2243): visibility: 13.01.2018 23:00:00 - 19.01.2018 23:00:00 (CET)Junsele A, Suède (2243): Quantités de précipitations: 13.01.2018 23:00:00 - 19.01.2018 23:00:00 (CET)
Date & Time tt [°C] td [°C] ff [km/h] ff [knt] fx [km/h] fx [knt] dd ppp [hPa] vv [km] rr [mm]
19.01.2018 23:00:00 -8,2 -9,3 9 5 19 10 ESE 1006,3 1,9 0,2
19.01.2018 22:00:00 -8,5 -9,9 8 5 18 10 E 1006,1 9 0,0
19.01.2018 21:00:00 -8,6 -10,0 5 3 20 11 SE 1006,1 22 0,0
19.01.2018 20:00:00 -8,8 -10,0 10 5 24 13 ESE 1005,8 2,3 0,2
19.01.2018 19:00:00 -9,3 -10,5 7 4 14 8 E 1005,8 2,9 0,1
19.01.2018 18:00:00 -9,6 -10,8 5 3 11 6 E 1005,6 3,4 0,0
19.01.2018 17:00:00 -9,9 -11,2 5 3 13 7 ENE 1005,5 15 0,0
19.01.2018 16:00:00 -10,2 -11,4 5 3 11 6 E 1005,4 8 0,0
19.01.2018 15:00:00 -10,8 -12,1 3 2 6 4 E 1004,9 6 0,0
19.01.2018 14:00:00 -11,0 -12,4 2 1 8 4 E 1004,8 11 0,0
19.01.2018 13:00:00 -11,5 -13,0 2 1 6 4 ESE 1004,6 2,8 0,0
19.01.2018 12:00:00 -12,3 -13,6 3 1 5 3 E 1004,5 10 0,0
19.01.2018 11:00:00 -13,1 -14,5 2 1 7 4 SE 1004,4 1,8 0,0
19.01.2018 10:00:00 -13,4 -14,9 3 2 6 3 SW 1004,2 15 0,0
19.01.2018 09:00:00 -13,8 -15,4 3 2 5 3 ESE 1003,6 14 0,0
19.01.2018 08:00:00 -13,6 -15,1 3 1 5 3 E 1003,1 5 0,0
19.01.2018 07:00:00 -13,8 -15,4 1 1 4 2 S 1002,8 14 0,0
19.01.2018 06:00:00 -14,1 -15,6 1 1 4 2 S 1002,4 16 0,0
19.01.2018 05:00:00 -14,0 -15,5 3 1 5 3 SSW 1002,1 9 0,0
19.01.2018 04:00:00 -14,6 -16,3 3 1 6 4 SW 1002,0 4,2 0,0
19.01.2018 03:00:00 -14,8 -16,3 2 1 8 4 W 1001,9 4,3 0,0
19.01.2018 02:00:00 -15,3 -16,9 3 1 4 2 WSW 1001,7 3,4 0,0
19.01.2018 01:00:00 -15,8 -17,4 3 2 10 5 W 1001,6 4,2 0,0
19.01.2018 00:00:00 -16,0 -17,5 5 3 9 5 W 1001,4 5 0,0
18.01.2018 23:00:00 -17,2 -19,0 3 1 5 3 WSW 1001,6 5 0,0
18.01.2018 22:00:00 -18,3 -20,2 1 1 5 3 WSW 1001,5 3,3 0,0
18.01.2018 21:00:00 -18,8 -20,6 1 1 3 2 SW 1001,5 4,9 0,0
18.01.2018 20:00:00 -19,8 -21,6 1 1 2 1 W 1001,2 25 0,0
18.01.2018 19:00:00 -19,2 -21,0 1 0 3 2 WSW 1001,0 5 0,0
18.01.2018 18:00:00 -19,8 -21,7 1 0 2 1 WSW 1000,8 29 0,1
18.01.2018 17:00:00 -18,0 -19,6 1 0 5 3 N - 28 0,0
18.01.2018 16:00:00 -16,5 -18,1 2 1 6 4 N 1000,2 - 0,0
18.01.2018 15:00:00 -14,0 -15,4 3 1 8 4 N 1000,2 8 0,0
18.01.2018 14:00:00 -12,2 -13,6 3 2 11 6 NNE 999,9 24 0,0
18.01.2018 13:00:00 -12,3 -13,9 5 3 11 6 NNE 999,7 22 0,0
18.01.2018 12:00:00 -12,9 -14,2 2 1 8 4 NE 1000,0 23 0,0
18.01.2018 11:00:00 -12,4 -13,5 3 2 6 3 NE 1000,0 11 0,0
18.01.2018 10:00:00 -12,1 -13,7 3 2 8 4 NNE 999,9 12 0,0
18.01.2018 09:00:00 -12,0 -13,4 3 2 7 4 NNE 1000,2 16 0,0
18.01.2018 08:00:00 -12,2 -13,6 2 1 6 4 NNE 1000,1 7 0,0
18.01.2018 07:00:00 -12,7 -14,1 3 2 8 4 NNE 999,9 9 0,0
18.01.2018 06:00:00 -13,7 -14,9 4 2 10 5 NE 1000,0 13 0,0
18.01.2018 05:00:00 -12,4 -14,2 5 3 14 8 ENE 1000,3 25 0,0
18.01.2018 04:00:00 -11,5 -13,2 4 2 20 11 E 1000,3 27 0,0
18.01.2018 03:00:00 -10,3 -12,5 9 5 30 16 E 999,9 29 0,0
18.01.2018 02:00:00 -9,9 -12,1 11 6 25 13 E 999,9 31 0,0
18.01.2018 01:00:00 -10,2 -12,0 10 5 22 12 E 999,8 29 0,0
18.01.2018 00:00:00 -10,3 -12,2 11 6 20 11 E 999,8 35 0,0
17.01.2018 23:00:00 -9,8 -11,7 7 4 24 13 E 999,8 32 0,0
17.01.2018 22:00:00 -9,7 -11,7 9 5 21 12 E 999,6 40 0,0
17.01.2018 21:00:00 -9,5 -11,6 8 5 23 12 E 999,2 33 0,0
17.01.2018 20:00:00 -9,2 -11,1 8 5 18 10 E 998,9 21 0,0
17.01.2018 19:00:00 -9,1 -10,9 7 4 17 9 E 998,7 11 0,0
17.01.2018 18:00:00 -9,4 -10,9 8 4 23 12 E 998,6 34 0,0
17.01.2018 17:00:00 -8,7 -10,5 10 6 20 11 ENE 998,3 6 0,1
17.01.2018 16:00:00 -8,3 -9,6 8 5 19 10 ENE 998,3 3,6 0,1
17.01.2018 15:00:00 -7,8 -9,2 7 4 16 9 ENE 997,9 1,7 0,0
17.01.2018 14:00:00 -7,6 -9,1 6 3 22 12 NE 997,6 4,7 0,0
17.01.2018 13:00:00 -7,2 -9,1 8 5 20 11 ENE 997,5 10 0,0
17.01.2018 12:00:00 -6,9 -8,9 10 5 31 17 E 997,2 29 0,1
17.01.2018 11:00:00 -6,5 -7,9 11 6 34 18 E 996,8 1,7 0,0
17.01.2018 10:00:00 -6,0 -7,7 10 6 28 15 E 996,3 6 0,0
17.01.2018 09:00:00 -5,6 -7,0 11 6 36 19 E 995,9 2,1 0,3
17.01.2018 08:00:00 -5,1 -6,5 16 9 39 21 E 995,0 6 0,0
17.01.2018 07:00:00 -4,6 -5,7 15 8 44 24 E 994,2 6 0,1
17.01.2018 06:00:00 -4,1 -5,0 14 7 34 18 E 993,5 7 0,0
17.01.2018 05:00:00 -3,6 -4,6 12 7 31 17 E 992,9 5 0,3
17.01.2018 04:00:00 -3,4 -3,9 13 7 32 17 E 992,6 1,0 0,1
17.01.2018 03:00:00 -2,8 -3,8 17 9 38 21 ESE 992,1 2,0 0,1
17.01.2018 02:00:00 -2,4 -3,7 16 9 41 22 SE 991,9 2,2 0,3
17.01.2018 01:00:00 -2,3 -3,4 14 8 40 22 ESE 991,5 2,5 0,0
17.01.2018 00:00:00 -2,0 -3,3 22 12 45 24 SE 990,9 2,3 0,1
16.01.2018 23:00:00 -2,4 -3,3 16 8 33 18 ESE 990,7 10 0,4
16.01.2018 22:00:00 -3,0 -3,6 14 8 35 19 ESE 990,4 2,4 0,5
16.01.2018 21:00:00 -3,4 -3,8 14 8 35 19 E 990,3 1,0 0,4
16.01.2018 20:00:00 -3,6 -4,2 18 10 43 23 ESE 990,4 1,2 0,6
16.01.2018 19:00:00 -3,1 -4,6 16 8 42 23 ESE 990,4 4,2 0,1
16.01.2018 18:00:00 -2,2 -3,7 19 10 59 32 ESE 989,7 5 0,1
16.01.2018 17:00:00 -1,9 -3,4 26 14 67 36 SE 989,6 1,6 0,1
16.01.2018 16:00:00 -2,2 -2,6 15 8 47 26 ESE 990,0 1,3 0,6
16.01.2018 15:00:00 -2,1 -3,5 20 11 48 26 ESE 990,7 2,3 0,1
16.01.2018 14:00:00 -2,1 -3,5 22 12 46 25 ESE 991,2 4,1 0,1
16.01.2018 13:00:00 -2,0 -3,9 21 11 51 28 SE 991,8 6 0,0
16.01.2018 12:00:00 -2,3 -3,6 19 10 57 31 ESE 992,2 5 0,1
16.01.2018 11:00:00 -2,4 -3,6 19 10 56 30 SE 992,7 3,9 0,2
16.01.2018 10:00:00 -2,3 -3,3 22 12 51 28 SE 992,7 2,3 0,1
16.01.2018 09:00:00 -2,1 -2,9 25 13 63 34 SE 993,0 1,8 0,2
16.01.2018 08:00:00 -1,9 -2,8 22 12 59 32 SE 993,3 2,5 0,2
16.01.2018 07:00:00 -1,9 -2,6 26 14 55 30 SE 993,3 1,2 0,3
16.01.2018 06:00:00 -2,0 -2,3 14 7 38 21 ESE 994,1 1,5 0,9
16.01.2018 05:00:00 -2,1 -2,7 20 11 45 24 SE 994,7 0,9 0,9
16.01.2018 04:00:00 -2,3 -3,0 16 9 45 25 SE 995,8 1,2 0,7
16.01.2018 03:00:00 -2,5 -3,6 19 11 55 30 SE 996,8 1,4 0,7
16.01.2018 02:00:00 -2,6 -4,6 18 10 46 25 SE 998,3 14 0,0
16.01.2018 01:00:00 -2,8 -5,1 22 12 50 27 SE 999,6 7 0,0
16.01.2018 00:00:00 -2,7 -5,2 21 11 51 28 SE 1000,3 9 0,0
15.01.2018 23:00:00 -2,8 -5,3 20 11 48 26 SE 1001,1 15 0,0
15.01.2018 22:00:00 -3,3 -5,3 12 7 31 17 SE 1002,4 15 0,0
15.01.2018 21:00:00 -3,8 -5,6 14 8 35 19 SE 1003,4 14 0,0
15.01.2018 20:00:00 -4,2 -6,0 12 7 40 22 SE 1004,7 13 0,0
15.01.2018 19:00:00 -4,4 -6,5 10 6 41 22 SSE 1005,8 17 0,0
15.01.2018 18:00:00 -4,6 -7,0 13 7 48 26 SSE 1006,7 19 0,0
15.01.2018 17:00:00 -4,4 -7,4 14 8 42 23 SSE 1007,8 21 0,0
15.01.2018 16:00:00 -4,3 -6,8 13 7 37 20 SSE 1008,8 19 0,0
15.01.2018 15:00:00 -4,2 -6,8 10 6 37 20 S 1009,3 22 0,0
15.01.2018 14:00:00 -4,4 -7,0 13 7 34 19 S 1010,3 18 0,0
15.01.2018 13:00:00 -4,5 -7,3 15 8 39 21 SSE 1011,5 18 0,0
15.01.2018 12:00:00 -4,9 -7,5 14 8 36 19 SSE 1012,6 15 0,0
15.01.2018 11:00:00 -5,2 -7,8 12 7 35 19 SSE 1013,5 7 0,0
15.01.2018 10:00:00 -5,5 -8,1 13 7 31 17 S 1014,6 15 0,0
15.01.2018 09:00:00 -5,7 -8,4 11 6 34 18 SSE 1015,1 28 0,0
15.01.2018 08:00:00 -5,6 -8,3 12 7 36 19 S 1015,4 23 0,0
15.01.2018 07:00:00 -5,4 -8,3 15 8 37 20 SSE 1015,5 24 0,0
15.01.2018 06:00:00 -5,2 -7,8 15 8 38 20 SSE 1016,4 27 0,0
15.01.2018 05:00:00 -5,1 -7,6 10 5 37 20 SSE 1017,3 30 0,0
15.01.2018 04:00:00 -5,0 -7,6 13 7 34 19 S 1018,2 30 0,0
15.01.2018 03:00:00 -5,2 -7,7 8 5 31 17 S 1019,4 23 0,0
15.01.2018 02:00:00 -5,2 -8,3 12 6 30 16 S 1020,6 20 0,0
15.01.2018 01:00:00 -5,6 -8,2 9 5 32 17 SSE 1021,3 16 0,0
15.01.2018 00:00:00 -5,7 -8,0 12 6 40 21 S 1022,1 18 0,0
14.01.2018 23:00:00 -5,8 -7,7 11 6 33 18 S 1022,4 23 0,0
14.01.2018 22:00:00 -5,7 -7,8 12 7 39 21 SSE 1022,6 23 0,0
14.01.2018 21:00:00 -5,7 -7,8 13 7 35 19 SSE 1023,3 32 0,0
14.01.2018 20:00:00 -5,9 -7,8 11 6 32 17 SSE 1023,5 32 0,0
14.01.2018 19:00:00 -5,9 -7,8 10 5 29 16 SSE 1024,2 25 0,0
14.01.2018 18:00:00 -6,0 -7,8 14 8 37 20 S 1025,6 20 0,0
14.01.2018 17:00:00 -6,1 -7,6 14 8 32 17 S 1026,4 22 0,0
14.01.2018 16:00:00 -6,2 -7,3 8 5 31 17 S 1027,0 29 0,0
14.01.2018 15:00:00 -6,2 -7,4 10 5 26 14 S 1027,6 28 0,0
14.01.2018 14:00:00 -6,3 -7,4 8 4 23 12 S 1028,4 22 0,0
14.01.2018 13:00:00 -6,4 -7,5 8 5 23 13 S 1029,1 22 0,0
14.01.2018 12:00:00 -6,5 -7,5 8 5 29 16 S 1029,9 19 0,0
14.01.2018 11:00:00 -6,6 -7,4 8 4 29 16 S 1030,6 21 0,0
14.01.2018 10:00:00 -6,9 -7,7 9 5 23 12 SSE 1030,7 22 0,0
14.01.2018 09:00:00 -7,3 -8,0 9 5 21 12 S 1031,2 31 0,0
14.01.2018 08:00:00 -7,7 -8,5 7 4 23 12 S 1031,5 32 0,0
14.01.2018 07:00:00 -8,0 -8,7 5 3 19 11 S 1031,9 31 0,0
14.01.2018 06:00:00 -8,6 -9,4 7 4 21 12 SSE 1032,4 36 0,0
14.01.2018 05:00:00 -9,7 -10,6 6 3 16 9 SSE 1033,0 37 0,0
14.01.2018 04:00:00 -12,8 -14,0 4 2 9 5 SE 1034,1 28 0,0
14.01.2018 03:00:00 -16,7 -18,2 4 2 10 5 ESE 1034,8 11 0,0
14.01.2018 02:00:00 -21,8 -24,0 3 2 5 3 ESE 1035,5 25 0,0
14.01.2018 01:00:00 -24,6 -26,9 1 1 4 2 NE 1036,1 11 0,0
14.01.2018 00:00:00 -27,7 -30,3 1 1 6 3 SSW - 4,3 0,0
13.01.2018 23:00:00 -27,5 -30,2 3 1 6 3 ENE 1036,9 33 0,0

tt = Température de l'air
td = dewpoint
ff = Vitesse du vent
fx = gusts
dd = Direction du vent
ppp = reduced air pressure
vv = visibility
rr = Quantités de précipitations

stations d'obs. à proximité